Hourly Weather Roundup
Issued by NWS Central Illinois

Home | Current Version | Previous Version | Text Only | Print | Product List | Glossary On
Versions: 1 2 3 4 5 6 7 8 9 10 11 12 13 14 15 16 17 18 19 20 21 22 23 24 25 26 27 28 29 30 31 32 33 34 35 36 37 38 39 40 41 42 43 44 45 46 47 48 49 50
000
NZUS43 KILX 022110
HWRILX

AREA WEATHER ROUNDUP
NATIONAL WEATHER SERVICE, LINCOLN IL
300 PM CST MON MAR 02 2015


CITY           SKY/WX    TMP DP  RH WIND       PRES   REMARKS
BLOOMINGTON    MOSUNNY   27  20  75 SE6       30.45F WCI  21
CHAMPAIGN      PTSUNNY   25  18  74 SE5       30.46S WCI  19
DECATUR        CLOUDY    28  19  69 E8        30.46S WCI  20
FLORA          MOSUNNY   32  17  53 NE5       30.47S WCI  27
GALESBURG      CLOUDY    28  17  63 S3        30.42F
JACKSONVILLE   MOSUNNY   33  23  69 E8        30.44F WCI  25
LACON          SUNNY     26  15  63 SE9       30.45S WCI  16
LAWRENCEVILLE  MOSUNNY   34  18  52 N5        30.46F WCI  30
LITCHFIELD     MOSUNNY   32  19  58 W3        30.44F
$$


CITY           SKY/WX    TMP DP  RH WIND       PRES   REMARKS
LINCOLN        CLOUDY    31  21  66 SE3       30.47F
MACOMB         CLOUDY    30  17  58 CALM      30.45F
MATTOON        MOSUNNY   28  19  69 W7        30.44S WCI  21
MT CARMEL AP   PTSUNNY   34  18  51 CALM      30.45F
OLNEY-NOBLE AP PTSUNNY   32  18  55 NE6       30.47S WCI  26
PARIS          PTSUNNY   29  22  75 W6        30.46F WCI  23
PEORIA         CLOUDY    32  19  58 S10       30.44F WCI  24
PONTIAC        SUNNY     25  18  75 SE6       30.46F WCI  18
RANTOUL        MOSUNNY   26  18  69 CALM      30.46F
ROBINSON       SUNNY     32  19  59 W3        30.47F
SPRINGFIELD    CLOUDY    32  18  56 SE7       30.45F WCI  26
TAYLORVILLE    MOSUNNY   32  18  55 SE6       30.45F WCI  26
$$

...REGIONAL REPORTS...


CITY           SKY/WX    TMP DP  RH WIND       PRES   REMARKS
CHICAGO O`HARE CLOUDY    31  11  43 VRB3      30.42F
KANKAKEE       SUNNY     27  15  60 SE6       30.46F WCI  21
MOLINE         PTSUNNY   27  16  63 SE8       30.42F WCI  19
MOUNT VERNON   PTSUNNY   32  18  55 NE8       30.46S WCI  25
PITTSFIELD     PTSUNNY   34  20  56 SE7       30.42F WCI  28
QUINCY         PTSUNNY   34  18  52 SE7       30.39F WCI  28
ROCKFORD       CLOUDY    26  14  60 S8        30.44F WCI  18
$$


CITY           SKY/WX    TMP DP  RH WIND       PRES   REMARKS
BURLINGTON     CLOUDY    29  17  61 SE6       30.40F WCI  23
CEDAR RAPIDS   CLOUDY    25  13  60 SE3       30.38F
DES MOINES     CLOUDY    31  15  52 SE10      30.34F WCI  22
KIRKSVILLE     PTSUNNY   34  23  64 SE8       30.37F WCI  27
OTTUMWA        CLOUDY    29  15  56 E7        30.36F WCI  22
ST LOUIS       PTSUNNY   35  17  47 SE9       30.44F WCI  28
$$


CITY           SKY/WX    TMP DP  RH WIND       PRES   REMARKS
TERRE HAUTE    MOSUNNY   33  15  47 E5        30.44F WCI  29
EVANSVILLE     PTSUNNY   38  17  42 E6        30.43F WCI  33
INDIANAPOLIS   PTSUNNY   32  14  47 SE3       30.42F
LAFAYETTE      MOSUNNY   30  16  56 CALM      30.44F
MADISON        PTSUNNY   27   8  44 SE7       30.41F WCI  19
MILWAUKEE      PTSUNNY   26  13  57 SE12      30.42F WCI  16
$$




USA.gov is the U.S. government's official web portal to all federal, state and local government web resources and services.